Regional Weather Roundup
Issued by NWS

Home | Current Version | Previous Version | Graphics & Text | Print | Product List | Glossary On
Versions: 1 2 3 4 5 6 7 8 9 10 11 12 13 14 15 16 17 18 19 20 21 22 23 24 25 26 27 28 29 30 31 32 33 34 35 36 37 38 39 40 41 42 43 44 45 46 47 48 49 50
000
ASUS45 KBOU 271807
RWRCO

WEATHER ROUNDUP FOR COLORADO
NATIONAL WEATHER SERVICE DENVER/BOULDER CO
1200 PM MDT TUE JUN 27 2017

NOTE: "FAIR" INDICATES FEW OR NO CLOUDS BELOW 12000 FEET WITH NO
SIGNIFICANT WEATHER AND/OR OBSTRUCTIONS TO VISIBILITY.

COZ001>005-013-030-031-271900-
...NORTHWEST COLORADO...

CITY           SKY/WX    TMP DP  RH WIND       PRES   REMARKS
CRAIG          FAIR      87  29  12 W13G21    29.99F
HAYDEN         FAIR      82  30  15 W16G29    30.03F
MEEKER         FAIR      86  27  11 SW17G25   30.02F
RABBIT EARS PA FAIR      63  34  34 W6G20     30.34S
STEAMBOAT SPGS FAIR      77  39  25 SW6       30.06F
WALDEN         FAIR      75  25  15 W23G33    30.14S
$$

COZ006>008-011-271900-
...WEST CENTRAL VALLEYS...

CITY           SKY/WX    TMP DP  RH WIND       PRES   REMARKS
GRAND JUNCTION FAIR      92  23   8 NW10G18   29.94F
MONTROSE       FAIR      89  27  10 SW16      30.05F
EAGLE          MOSUNNY   84  34  16 SW20G37   30.06F
RIFLE          FAIR      90  24   9 W26G33    29.98F
DELTA          FAIR      95  24   8 SW16G28   30.00S
NUCLA          NOT AVBL
$$

COZ017>023-064>068-271900-
...SOUTHWEST COLORADO...

CITY           SKY/WX    TMP DP  RH WIND       PRES   REMARKS
DURANGO        FAIR      79  38  22 NE8       30.19F
CORTEZ         FAIR      86  32  14 S15       30.12F
PAGOSA SPRINGS FAIR      74  35  23 S6        30.28S
TELLURIDE      FAIR      73  21  14 W18G28    30.34F
WOLF CREEK PAS FAIR      55  34  44 S15G21    30.60F
$$

COZ009-010-012-014-032>034-037-058>063-271900-
...CENTRAL COLORADO...

CITY           SKY/WX    TMP DP  RH WIND       PRES   REMARKS
ASPEN          FAIR      78  22  12 VRB5G18   30.16S
BUENA VISTA    PTSUNNY   77  31  18 E6        30.18F
COPPER MTN     PTSUNNY   61  19  20 W25G37    30.50F
BERTHOUD PASS  FAIR      52  37  58 W35G53    30.50S
COTTONWOOD PAS PTSUNNY   72  14  11 W25G41    30.33F
GUNNISON       FAIR      78  34  20 W14G22    30.18F
KREMMLING      NOT AVBL
LEADVILLE      FAIR      69  19  15 W15G26    30.31F
MONARCH PASS   FAIR      61  28  29 W30G36    30.60F
SALIDA         FAIR      80  36  20 S16G33    30.23F
SUNLIGHT       FAIR      66  27  22 SW16G28   30.39F
WILKERSON PASS FAIR      64  23  20 SW15G29   30.46S
$$

COZ069>075-271900-
...SAN LUIS VALLEY/SANGRE DE CRISTO MOUNTAINS...

CITY           SKY/WX    TMP DP  RH WIND       PRES   REMARKS
ALAMOSA        FAIR      75  45  34 SE10      30.21F
DEL NORTE      FAIR      72  40  32 E9        30.24F
LA VETA PASS   FAIR      66  41  39 MISG      30.51F
SAGUACHE       FAIR      72  39  30 SE9       30.24F
$$

COZ035-036-038>040-271900-
...NORTHERN COLORADO FRONT RANGE...

CITY           SKY/WX    TMP DP  RH WIND       PRES   REMARKS
DENVER INTL AP PTSUNNY   92  36  14 VRB3      29.90F
DMNS CITY PARK   N/A     90  38  16 E5G12     29.89F
AURORA         PTSUNNY   91  37  15 S8G20     29.93F
FRONT RANGE AP PTSUNNY   91  32  12 CALM      29.92F
ERIE MUNI ARPT FAIR      85  47  26 E3        29.88F
BOULDER MUN AP FAIR      82  55  39 NE5       29.88F
CENTENNIAL     PTSUNNY   90  32  12 S13G22    29.94F
BROOMFIELD     FAIR      88  37  16 E6        29.92F
FORT COLLINS   FAIR      82  57  42 SE8       29.87F
LONGMONT       FAIR      86  51  29 S7        29.89F
$$

COZ041-046-047-076>085-087-088-271900-
...PIKES PEAK/PALMER DIVIDE AND SOUTHERN FOOTHILLS...

CITY           SKY/WX    TMP DP  RH WIND       PRES   REMARKS
COLO. SPRINGS  PTSUNNY   87  34  15 CALM      30.02F
A. F. ACADEMY  PTSUNNY   84  38  19 E6        30.02F
SCHRIEVER AFB  FAIR      84  35  17 W5        30.03F
CHEYENNE MTN   PTSUNNY   79  43  27 NE3       30.03F
ELLICOTT       FAIR     N/A N/A N/A SW9       30.00F
FALCON           N/A     82  32  16 SW5G17    30.08F
FORT CARSON    CLOUDY    89  36  15 W15G22    29.98F
LIMON          FAIR      88  49  25 S15G22    29.93F
MONUMENT HILL  FAIR      82  34  17 SW12      30.09F
CANON CITY     SUNNY     93  39  15 W14G22    29.96F
WALSENBURG     FAIR      86  41  20 SW20G28   30.04F
TRINIDAD       FAIR      88  42  20 SW7       30.03F
$$

COZ042>045-048>051-090-091-271900-
...NORTHEAST COLORADO...

CITY           SKY/WX    TMP DP  RH WIND       PRES   REMARKS
GREELEY ARPT   FAIR      83  58  42 VRB5      29.86F
AKRON          FAIR      91  42  18 SW10      29.87F
BURLINGTON     FAIR      91  49  23 S22G30    29.90F
WRAY           FAIR      86  59  39 SE15G22   29.86F
YUMA           FAIR      84  55  37 S18       29.85F
STERLING       FAIR      90  48  24 SW10G16   29.80F
HOLYOKE        NOT AVBL
FORT MORGAN    FAIR      86  47  25 CALM      29.86F
$$

COZ086-089-092>099-271900-
...SOUTHEAST COLORADO...

CITY           SKY/WX    TMP DP  RH WIND       PRES   REMARKS
PUEBLO         FAIR      90  45  21 S10       29.92F
LA JUNTA       FAIR      92  52  25 S14       29.90F
LAMAR          FAIR      94  47  20 S9G20     29.87F
SPRINGFIELD      N/A     87  51  28 S29G37    29.97F
$$



USA.gov is the U.S. government's official web portal to all federal, state and local government web resources and services.